• In Austria
  • List of Countries
  • For 7 days
  • Water Temperature
  • Satellite Maps
  • Weather Map
  • News
  • Weather Widgets
  • user-avatar
    Login

    Hourly Weather Zhvikovo

    Today, 19 June, Tuesday

    Time Temperature Precipitation Wind Pressure Humidity
    00:00 +17°C° 0 mm 2 mps 743 mmHg 82%
    01:00 +16°C° 0 mm 2 mps 743 mmHg 85%
    02:00 +16°C° 0 mm 2 mps 743 mmHg 91%
    03:00 +16°C° 0 mm 2 mps 743 mmHg 92%
    04:00 +16°C° 0 mm 2 mps 743 mmHg 93%
    05:00 +16°C° 0 mm 2 mps 743 mmHg 94%
    06:00 +18°C° 0 mm 2 mps 743 mmHg 89%
    07:00 +20°C° 0 mm 2 mps 743 mmHg 84%
    08:00 +22°C° 0 mm 1 mps 744 mmHg 77%
    09:00 +23°C° 0.5 mm 2 mps 743 mmHg 73%
    10:00 +24°C° 0.5 mm 2 mps 743 mmHg 68%
    11:00 +25°C° 0.5 mm 3 mps 743 mmHg 64%
    12:00 +25°C° 0.3 mm 3 mps 743 mmHg 64%
    13:00 +26°C° 0.3 mm 4 mps 742 mmHg 63%
    14:00 +26°C° 0.3 mm 4 mps 742 mmHg 63%
    15:00 +26°C° 0.2 mm 4 mps 742 mmHg 65%
    16:00 +25°C° 0.2 mm 4 mps 742 mmHg 67%
    17:00 +25°C° 0.2 mm 4 mps 741 mmHg 69%
    18:00 +23°C° 0 mm 4 mps 741 mmHg 72%
    19:00 +21°C° 0 mm 4 mps 741 mmHg 75%
    20:00 +20°C° 0 mm 3 mps 741 mmHg 78%
    21:00 +19°C° 0 mm 4 mps 742 mmHg 80%
    22:00 +18°C° 0 mm 4 mps 742 mmHg 82%
    23:00 +17°C° 0 mm 4 mps 742 mmHg 84%

    Tomorrow, 20 June, Wednesday

    Time Temperature Precipitation Wind Pressure Humidity
    00:00 +15°C° 0 mm 4 mps 742 mmHg 87%
    01:00 +14°C° 0 mm 4 mps 743 mmHg 90%
    02:00 +13°C° 0 mm 4 mps 743 mmHg 93%
    03:00 +13°C° 0 mm 3 mps 743 mmHg 93%
    04:00 +12°C° 0 mm 3 mps 743 mmHg 93%
    05:00 +12°C° 0 mm 3 mps 743 mmHg 93%
    06:00 +14°C° 0 mm 4 mps 744 mmHg 86%
    07:00 +15°C° 0 mm 4 mps 744 mmHg 80%
    08:00 +18°C° 0 mm 4 mps 744 mmHg 74%
    09:00 +19°C° 0 mm 5 mps 744 mmHg 69%
    10:00 +20°C° 0 mm 5 mps 744 mmHg 64%
    11:00 +21°C° 0 mm 6 mps 744 mmHg 59%
    12:00 +21°C° 0 mm 6 mps 744 mmHg 58%
    13:00 +22°C° 0 mm 6 mps 744 mmHg 56%
    14:00 +22°C° 0 mm 6 mps 744 mmHg 55%
    15:00 +22°C° 0 mm 6 mps 744 mmHg 57%
    16:00 +22°C° 0 mm 5 mps 744 mmHg 59%
    17:00 +22°C° 0 mm 5 mps 743 mmHg 61%
    18:00 +20°C° 0 mm 4 mps 744 mmHg 66%
    19:00 +19°C° 0 mm 4 mps 744 mmHg 70%
    20:00 +17°C° 0 mm 3 mps 744 mmHg 75%
    21:00 +16°C° 0 mm 3 mps 744 mmHg 77%
    22:00 +14°C° 0 mm 3 mps 744 mmHg 80%
    23:00 +13°C° 0 mm 3 mps 744 mmHg 82%

    Day after tomorrow, 21 June, Thursday

    Time Temperature Precipitation Wind Pressure Humidity
    00:00 +12°C° 0 mm 3 mps 744 mmHg 84%
    01:00 +12°C° 0 mm 2 mps 744 mmHg 87%
    02:00 +12°C° 0 mm 2 mps 744 mmHg 89%
    03:00 +12°C° 0 mm 2 mps 744 mmHg 88%
    04:00 +11°C° 0 mm 3 mps 744 mmHg 88%
    05:00 +12°C° 0 mm 3 mps 744 mmHg 87%
    06:00 +14°C° 0 mm 3 mps 744 mmHg 82%
    07:00 +17°C° 0 mm 3 mps 744 mmHg 77%
    08:00 +19°C° 0 mm 4 mps 744 mmHg 72%
    09:00 +20°C° 0 mm 4 mps 743 mmHg 68%
    10:00 +22°C° 0 mm 4 mps 743 mmHg 64%
    11:00 +23°C° 0 mm 4 mps 743 mmHg 61%
    12:00 +25°C° 0 mm 4 mps 743 mmHg 59%
    13:00 +26°C° 0 mm 4 mps 742 mmHg 58%
    14:00 +26°C° 0 mm 4 mps 742 mmHg 57%
    15:00 +26°C° 0 mm 4 mps 741 mmHg 59%
    16:00 +26°C° 0 mm 4 mps 740 mmHg 61%
    17:00 +26°C° 0 mm 4 mps 740 mmHg 64%
    18:00 +25°C° 0 mm 3 mps 739 mmHg 69%
    19:00 +22°C° 0 mm 3 mps 739 mmHg 74%
    20:00 +20°C° 0 mm 3 mps 738 mmHg 79%
    21:00 +20°C° 0 mm 4 mps 738 mmHg 77%
    22:00 +20°C° 0 mm 5 mps 738 mmHg 74%
    23:00 +20°C° 0 mm 5 mps 737 mmHg 71%

    22 June, Friday

    Time Temperature Precipitation Wind Pressure Humidity
    00:00 +20°C° 0.1 mm 6 mps 736 mmHg 75%
    01:00 +20°C° 0.1 mm 6 mps 736 mmHg 78%
    02:00 +20°C° 0.1 mm 6 mps 735 mmHg 81%
    03:00 +20°C° 0.3 mm 6 mps 735 mmHg 85%
    04:00 +20°C° 0.3 mm 6 mps 734 mmHg 88%
    05:00 +19°C° 0.3 mm 6 mps 733 mmHg 92%
    06:00 +20°C° 0.7 mm 6 mps 734 mmHg 91%
    07:00 +20°C° 0.7 mm 7 mps 734 mmHg 91%
    08:00 +21°C° 0.7 mm 7 mps 734 mmHg 90%
    09:00 +19°C° 0.6 mm 6 mps 734 mmHg 91%
    10:00 +15°C° 0.6 mm 6 mps 735 mmHg 92%
    11:00 +13°C° 0.6 mm 5 mps 735 mmHg 93%
    12:00 +13°C° 0.5 mm 4 mps 735 mmHg 93%
    13:00 +12°C° 0.5 mm 4 mps 736 mmHg 93%
    14:00 +11°C° 0.5 mm 4 mps 736 mmHg 93%
    15:00 +11°C° 0.3 mm 3 mps 737 mmHg 92%
    16:00 +11°C° 0.3 mm 3 mps 737 mmHg 92%
    17:00 +12°C° 0.3 mm 3 mps 737 mmHg 91%
    18:00 +12°C° 0.1 mm 3 mps 737 mmHg 92%
    19:00 +12°C° 0.1 mm 3 mps 737 mmHg 92%
    20:00 +11°C° 0.1 mm 4 mps 738 mmHg 92%
    21:00 +11°C° 0 mm 3 mps 738 mmHg 92%
    22:00 +11°C° 0 mm 3 mps 738 mmHg 92%
    23:00 +11°C° 0 mm 3 mps 738 mmHg 92%

    23 June, Saturday

    Time Temperature Precipitation Wind Pressure Humidity
    00:00 +11°C° 0 mm 3 mps 738 mmHg 91%
    01:00 +10°C° 0 mm 3 mps 738 mmHg 90%
    02:00 +10°C° 0 mm 2 mps 738 mmHg 90%
    03:00 +10°C° 0 mm 2 mps 738 mmHg 89%
    04:00 +10°C° 0 mm 3 mps 738 mmHg 89%
    05:00 +10°C° 0 mm 3 mps 738 mmHg 88%
    06:00 +11°C° 0 mm 3 mps 738 mmHg 84%
    07:00 +12°C° 0 mm 3 mps 738 mmHg 80%
    08:00 +13°C° 0 mm 4 mps 739 mmHg 76%
    09:00 +13°C° 0.1 mm 4 mps 739 mmHg 74%
    10:00 +14°C° 0.1 mm 4 mps 739 mmHg 72%
    11:00 +15°C° 0.1 mm 4 mps 739 mmHg 70%
    12:00 +17°C° 0.4 mm 4 mps 739 mmHg 69%
    13:00 +16°C° 0.4 mm 5 mps 739 mmHg 68%
    14:00 +17°C° 0.4 mm 5 mps 739 mmHg 67%
    15:00 +18°C° 0.2 mm 4 mps 739 mmHg 67%
    16:00 +18°C° 0.2 mm 4 mps 739 mmHg 67%
    17:00 +18°C° 0.2 mm 4 mps 739 mmHg 66%
    18:00 +17°C° 0.1 mm 3 mps 739 mmHg 72%
    19:00 +14°C° 0.1 mm 3 mps 739 mmHg 78%
    20:00 +14°C° 0.1 mm 2 mps 739 mmHg 84%
    21:00 +13°C° 0 mm 2 mps 740 mmHg 87%
    22:00 +12°C° 0 mm 2 mps 740 mmHg 90%
    23:00 +10°C° 0 mm 2 mps 740 mmHg 93%

    24 June, Sunday

    Time Temperature Precipitation Wind Pressure Humidity
    00:00 +10°C° 0 mm 2 mps 740 mmHg 93%
    01:00 +9°C° 0 mm 2 mps 740 mmHg 94%
    02:00 +9°C° 0 mm 2 mps 740 mmHg 94%
    03:00 +9°C° 0 mm 2 mps 741 mmHg 94%
    04:00 +9°C° 0 mm 2 mps 741 mmHg 94%
    05:00 +10°C° 0 mm 2 mps 741 mmHg 94%
    06:00 +12°C° 0 mm 2 mps 741 mmHg 89%
    07:00 +14°C° 0 mm 2 mps 742 mmHg 84%
    08:00 +16°C° 0 mm 3 mps 742 mmHg 79%
    09:00 +17°C° 0.2 mm 3 mps 742 mmHg 75%
    10:00 +17°C° 0.2 mm 3 mps 742 mmHg 71%
    11:00 +18°C° 0.2 mm 4 mps 742 mmHg 67%
    12:00 +18°C° 0.7 mm 4 mps 742 mmHg 69%
    13:00 +18°C° 0.7 mm 4 mps 742 mmHg 70%
    14:00 +18°C° 0.7 mm 4 mps 742 mmHg 72%
    15:00 +18°C° 0.5 mm 3 mps 743 mmHg 71%
    16:00 +18°C° 0.5 mm 3 mps 743 mmHg 71%
    17:00 +18°C° 0.5 mm 2 mps 743 mmHg 71%
    18:00 +17°C° 0.2 mm 2 mps 743 mmHg 75%
    19:00 +16°C° 0.2 mm 2 mps 743 mmHg 80%
    20:00 +15°C° 0.2 mm 2 mps 744 mmHg 84%
    21:00 +14°C° 0 mm 2 mps 744 mmHg 86%
    22:00 +12°C° 0 mm 2 mps 744 mmHg 88%
    23:00 +10°C° 0 mm 2 mps 744 mmHg 90%
    Show more